UFO 2 (USA 95)

Last updated on Fri Apr 25 2025 00:02:37 GMT+0000 (Coordinated Universal Time)

1 22787U 93056A 25113.89401675 .00000128 00000+0 00000+0 0 9990 2 22787 11.7536 5.7886 0004358 346.8787 209.9619 1.00273221114345
UTC large
Height (km)
Speed (km/s)
/
Latitude / Longitude
Inclination (degrees)
Orbital Period (minutes)
Azimuth
Elevation
Range (km)
Doppler Factor

Next 0 passes for location: London (51.5072 / 0.1276)

Sorry there are no passes over London.